ONEWEB-0243 (48774 NORAD) Tracking and Keplerian Element Data

This shows tracking and keplerian element data for the satellite.

Feedback or suggestion? Click here.




ElementValue
Catalog48774
NameONEWEB-0243
Epoch Orbit1065
Epoch Day210.91668981
Epoch Year2021
RAAN255.9057
Inclination87.5465
Eccentricity0.0013161
Argument of Perigee56.0577
Mean Anonmoly45.3001
Mean Motion14.40816803
Decay Rate-0.01409634
L11 48774U 21045H 21210.91668981 -.01409634 00000-0 -47136+0 0 9995
L22 48774 87.5465 255.9057 0013161 56.0577 45.3001 14.40816803 10652

Live tracking and technical data element details for ONEWEB-0243 (NORAD 48774). ONEWEB-0243 can be tracked NOW for your location showing map with azimuth and elevation plus other details from your city location.

Track the satellite on the map from your city or location and see movement details for azimuth, elevation, latitude, longitude, range, height, and movement on the map or in text.







IsCatalogInMostPopularTable: catalog: 48774, numindb: 13
Update: records affected: 1



GetName: 48774 ONEWEB-0243

Hit Count: updated at: Sat, 31 Jul 2021 15:03:10 GMT